SL-16 DEB, 22607

Orbit data source: Space-Track

SL-16 DEB, 22607 is space debris in LEO originally from a launch on Fri, 26 Mar 1993 UTC launched from the Tyuratam Missile And Space Complex (TTMTR). Debris objects in space refer to the collection of defunct objects orbiting the Earth. Examples of debris include non-operational satellites, rocket bodies, and fragments generated from explosions, collisions, or faulty payload assembly.

Loading next visibility...
Identifier
22607, 1993-016R
Orbit
LEO
Country
Flag of CISCIS
Related business
Manufacturer
Unknown
Mission
Spacecraft
Bus & Motor
Unknown
Mass
Unknown
Launch date (UTC)
1993-03-26 (33 years ago)
Launch vehicle
Unknown
Launch site
Tyuratam Missile And Space Complex (TTMTR)
Object type
Payload
Rocket body
Debris
Shape & HBR
Unknown shape, 0.3 m
Radar Cross Section
Medium (>0.1 m² and <1 m²)

Expand to show TLE details & history
Last TLE update: 17 hours ago

TLE from 17 hours ago
0 SL-16 DEB
1 22607U 93016R   26255.17664005 -.00000009  00000-0  31639-4 0  9991
2 22607  70.9942 334.4770 0174528 334.0323  47.4994 13.75948443680169
Epoch: 2026-09-12T04:14Z
TLE epoch observation values (Epoch: 2026-09-12T04:14:21.700Z)
Latitude
21.72921°
Longitude
-72.45452°
Altitude
894.888 km
Speed
7.45 km/s
True Right ascension
22h 49m 18s
True Declination
21° 36' 48"
Sunlit
Object was in full shadow at epoch
Visualization orbit readout
Latitude
Unknown
Longitude
Unknown
Altitude
Unknown
Speed
Unknown
Apparent Right ascension
Unknown
Apparent Declination
Unknown
Sunlit
N/A
Visualization observer readout
Local Sidereal Time
13:44:14
Azimuth
Unknown
Elevation
Unknown
Doppler factor
Unknown
Orbital elements
Apogee altitude
1,104.61 km
Perigee altitude
847.901 km
Semi-major axis
7,354.392 km
Eccentricity
0.01745
Inclination
70.9942°
RAAN
334.477°
Arg. of periapsis
334.0323°
True anomaly
48.99577°
Mean anomaly
47.4994°
Eccentric anomaly
48.24538°
Mean motion
3.4413 °/min
Orbital period
104.61 mins
BSTAR
0.000031639
Loading maneuver chart data...
Computing Atmospheric mass density...
Loading historical data...
Loading historical data...
Loading historical data...
Loading historical data...
Loading historical data...
Loading historical data...
Loading historical data...

Documentation

Showing up to 5 results
|